FW9556 Weather Reports


Display with metric or nautical units.
time (UTC)temp
F
wind
direction
speed
MPH
gust
MPH
rain 1hr
in
rain 24hr
in
rain mn
in
humidity
%
barometer
mb
20260506061538 42 190 4.0 8.0 0.01 0.03 0.02 93 1014.0
20260506044546 42 190 3.0 6.0 0.00 0.01 0.00 91 1014.1
20260506043040 42 190 2.0 5.0 0.00 0.01 0.00 91 1014.2
20260506041550 42 190 2.0 5.0 0.00 0.00 0.00 90 1014.2
20260506040042 42 190 3.0 6.0 0.00 0.00 0.00 90 1014.2
20260506034544 42 190 3.0 9.0 0.00 0.00 0.00 90 1014.3
20260506033038 43 190 4.0 6.0 0.00 0.00 0.00 91 1014.4
20260506031538 43 190 4.0 8.0 0.00 0.00 0.00 91 1014.5
20260506030037 41 190 1.0 4.0 0.00 0.00 0.00 92 1014.5
20260506024539 40 0 0.0 0.0 0.00 0.00 0.00 88 1014.7
20260506023042 41 0 0.0 0.0 0.00 0.00 0.00 87 1014.7
20260506021546 41 0 0.0 0.0 0.00 0.00 0.00 86 1014.7
20260506020037 41 0 0.0 0.0 0.00 0.00 0.00 84 1014.7
20260506014537 41 0 0.0 0.0 0.00 0.00 0.00 86 1014.8
20260506013044 40 0 0.0 0.0 0.00 0.00 0.00 86 1014.9
20260506011607 40 0 0.0 0.0 0.00 0.00 0.00 87 1015.0
20260506010042 39 0 0.0 0.0 0.00 0.00 0.00 88 1015.1
20260506004543 39 0 0.0 0.0 0.00 0.00 0.00 88 1015.1
20260506003042 38 0 0.0 0.0 0.00 0.00 0.00 88 1015.1
20260506001536 37 0 0.0 0.0 0.00 0.00 0.00 87 1015.2
20260506000046 38 0 0.0 0.0 0.00 0.00 0.00 86 1015.3
20260505234540 38 0 0.0 0.0 0.00 0.00 0.00 85 1015.3
20260505233038 40 0 0.0 0.0 0.00 0.00 0.00 84 1015.3
20260505231541 40 0 0.0 0.0 0.00 0.00 0.00 81 1015.4
20260505230038 42 0 0.0 0.0 0.00 0.00 0.00 79 1015.4
20260505224540 42 0 0.0 2.0 0.00 0.00 0.00 77 1015.6
20260505223036 42 190 0.0 2.0 0.00 0.00 0.00 77 1015.5
20260505221546 41 190 0.0 1.0 0.00 0.00 0.00 78 1015.5
20260505220053 41 0 0.0 1.0 0.00 0.00 0.00 78 1015.7
20260505214544 41 190 0.0 2.0 0.00 0.00 0.00 78 1015.5
20260505213039 42 0 0.0 1.0 0.00 0.00 0.00 79 1015.7
20260505211540 43 0 0.0 3.0 0.00 0.00 0.00 78 1015.8
20260505210046 43 190 1.0 3.0 0.00 0.00 0.00 78 1015.9
20260505204547 43 190 0.0 4.0 0.00 0.00 0.00 79 1015.8
20260505203038 43 0 0.0 1.0 0.00 0.00 0.00 79 1015.7
20260505201541 44 190 0.0 1.0 0.00 0.00 0.00 77 1015.5
20260505200037 45 0 0.0 3.0 0.00 0.00 0.00 76 1015.6
20260505194540 46 190 2.0 7.0 0.00 0.00 0.00 73 1015.6
20260505193042 48 190 1.0 4.0 0.00 0.00 0.00 71 1015.4
20260505191540 49 190 0.0 7.0 0.00 0.00 0.00 71 1015.4
20260505190040 49 190 1.0 6.0 0.00 0.00 0.00 70 1015.4
20260505184537 50 190 3.0 11.0 0.00 0.00 0.00 68 1015.4
20260505183049 51 190 3.0 8.0 0.00 0.00 0.00 67 1015.4
20260505181539 51 190 3.0 9.0 0.00 0.00 0.00 67 1015.4
20260505180043 52 190 2.0 6.0 0.00 0.00 0.00 64 1015.3
20260505174537 53 190 3.0 8.0 0.00 0.00 0.00 61 1015.2
20260505173039 52 190 4.0 8.0 0.00 0.00 0.00 62 1015.2
20260505171537 52 190 2.0 6.0 0.00 0.00 0.00 64 1015.2
20260505170038 53 190 3.0 7.0 0.00 0.00 0.00 62 1015.1
20260505164553 51 190 5.0 11.0 0.00 0.00 0.00 65 1015.0
20260505163043 52 190 3.0 9.0 0.00 0.00 0.00 66 1015.1
20260505161549 52 190 4.0 8.0 0.00 0.00 0.00 65 1015.3
20260505153050 51 190 3.0 10.0 0.00 0.00 0.00 65 1015.3
20260505151538 51 190 4.0 9.0 0.00 0.00 0.00 67 1015.4
20260505124545 51 190 3.0 14.0 0.00 0.00 0.00 69 1015.1
20260505123043 51 190 4.0 13.0 0.00 0.00 0.00 70 1015.3
20260505121539 51 190 3.0 10.0 0.00 0.00 0.00 70 1015.6
20260505120049 50 190 5.0 12.0 0.00 0.00 0.00 70 1015.6
20260505114537 51 190 3.0 10.0 0.00 0.00 0.00 70 1015.6
20260505113038 51 190 5.0 11.0 0.00 0.00 0.00 68 1015.4
20260505111538 51 190 4.0 8.0 0.00 0.00 0.00 70 1015.6
20260505101539 49 190 3.0 9.0 0.00 0.00 0.00 74 1015.8
20260505100039 49 190 2.0 8.0 0.00 0.00 0.00 74 1015.8
20260505094539 49 190 4.0 7.0 0.00 0.00 0.00 73 1015.7
20260505093038 49 190 3.0 8.0 0.00 0.00 0.00 76 1015.6
20260505091540 49 190 4.0 8.0 0.00 0.00 0.00 75 1015.7
20260505090043 48 190 5.0 10.0 0.00 0.00 0.00 77 1015.4
20260505084548 48 190 4.0 9.0 0.00 0.00 0.00 78 1015.6
20260505083047 48 190 5.0 11.0 0.00 0.00 0.00 77 1015.4
20260505081543 48 190 3.0 10.0 0.00 0.00 0.00 80 1015.4
20260505080036 47 190 3.0 7.0 0.00 0.00 0.00 82 1015.3
20260505074539 46 190 4.0 12.0 0.00 0.00 0.00 84 1015.2
20260505073041 46 190 3.0 10.0 0.00 0.00 0.00 88 1015.2
20260505071537 45 190 2.0 7.0 0.00 0.00 0.00 93 1015.2
20260505070044 45 190 2.0 6.0 0.00 0.00 0.00 94 1015.1
20260505064540 45 190 1.0 5.0 0.00 0.00 0.00 94 1015.3
20260505063040 44 190 1.0 4.0 0.00 0.00 0.00 94 1015.1